Weather History for Bedford, MA

Change the Weather History Date:

Wednesday, January 30, 2013

  Actual Average Record
Temperature  
Mean Temperature 46 °F -  
Max Temperature 60 °F 36 °F 60 °F (2013)
Min Temperature 33 °F 16 °F -2 °F (1965)
Degree Days  
Heating Degree Days 18    
Moisture  
Dew Point 43 °F    
Average Humidity 92    
Maximum Humidity 100    
Minimum Humidity 80    
Precipitation  
Precipitation 0.07 in - - ()
Sea Level Pressure  
Sea Level Pressure 29.83 in    
Wind  
Wind Speed 5 mph (South)    
Max Wind Speed 24 mph    
Max Gust Speed 34 mph    
Visibility 4 miles    
Events Fog , Rain    
Averages and records for this station are not official NWS values.
T = Trace of Precipitation, MM = Missing Value Source: NWS Daily Summary

Daily Weather History Graph

Daily Weather History Graph

Search for Another Location

Airport:

Trip Planner

Search our weather history database for the weather conditions in past years. The results will help you decide how hot, cold, wet, or windy it might be!

Date:

Astronomy

Jan. 30, 2013 Rise Set
Actual Time 7:00 AM EST 4:56 PM EST
Civil Twilight 6:30 AM EST 5:26 PM EST
Nautical Twilight 5:57 AM EST 6:00 PM EST
Astronomical Twilight 5:24 AM EST 6:33 PM EST
Moon 8:58 PM EST (1/30) 8:21 AM EST (1/30)
Length of Visible Light 10h 55m
Length of Day
9h 55m
Waning Gibbous, 88% of the Moon is Illuminated
Jan 30
Waning Gibbous
Feb 3
Last Quarter
Feb 10
New
Feb 17
First Quarter
Feb 25
Full

Hourly Weather History & Observations

Time (EST) Temp. Windchill Dew Point Humidity Pressure Visibility Wind Dir Wind Speed Gust Speed Precip Events Conditions
12:34 AM 33.8 °F - 30.2 °F 87% 30.13 in 1.5 mi Calm Calm - 0.00 in Rain Light Rain
12:56 AM 33.1 °F - 30.9 °F 92% 30.17 in 1.5 mi Calm Calm - 0.01 in   Overcast
1:06 AM 33.8 °F - 32.0 °F 93% 30.12 in 2.0 mi Calm Calm - 0.01 in Rain Light Rain
1:56 AM 33.1 °F - 32.0 °F 96% 30.15 in 2.0 mi Calm Calm - 0.03 in Rain Light Rain
2:18 AM 33.8 °F - 32.0 °F 93% 30.10 in 1.8 mi Calm Calm - 0.01 in Rain Light Rain
2:41 AM 33.8 °F - 32.0 °F 93% 30.07 in 3.0 mi Calm Calm - 0.01 in Rain Light Rain
2:56 AM 34.0 °F - 32.0 °F 92% 30.11 in 3.0 mi Calm Calm - 0.01 in   Overcast
3:53 AM 33.8 °F 30.8 °F 33.8 °F 100% 30.02 in 2.5 mi SE 3.5 mph - 0.01 in   Overcast
3:56 AM 34.0 °F 29.8 °F 33.1 °F 96% 30.07 in 2.0 mi SE 4.6 mph - 0.01 in   Overcast
4:32 AM 35.6 °F 32.8 °F 35.6 °F 100% 30.02 in 1.5 mi SSE 3.5 mph - N/A   Overcast
4:47 AM 35.6 °F 31.7 °F 33.8 °F 93% 30.01 in 0.8 mi SSE 4.6 mph - N/A   Overcast
4:56 AM 35.1 °F 31.0 °F 34.0 °F 96% 30.05 in 0.5 mi SSE 4.6 mph - N/A Fog Fog
5:27 AM 35.6 °F 32.8 °F 35.6 °F 100% 29.98 in 1.0 mi SE 3.5 mph - N/A   Overcast
5:56 AM 36.0 °F - 35.1 °F 97% 30.04 in 1.0 mi Calm Calm - N/A   Overcast
6:17 AM 35.6 °F - 33.8 °F 93% 29.98 in 0.5 mi Calm Calm - N/A Fog Fog
6:56 AM 35.6 °F - 35.6 °F 100% 29.95 in 0.5 mi Calm Calm - N/A Fog Fog
7:30 AM 35.6 °F - 35.6 °F 100% 29.93 in 0.2 mi Calm Calm - N/A Fog Fog
7:56 AM 36.0 °F - 35.1 °F 97% 29.96 in 0.2 mi Calm Calm - N/A Fog Fog
8:08 AM 35.6 °F - 33.8 °F 93% 29.90 in 0.2 mi Calm Calm - N/A Fog Fog
8:31 AM 37.4 °F - 37.4 °F 100% 29.89 in 0.5 mi Calm Calm - N/A Fog Fog
8:56 AM 44.1 °F 39.5 °F 43.0 °F 96% 29.92 in 0.8 mi South 8.1 mph - N/A   Mist
9:56 AM 48.0 °F - 46.0 °F 93% 29.88 in 0.8 mi South 13.8 mph 20.7 mph N/A   Overcast
9:58 AM 48.2 °F - 46.4 °F 93% 29.83 in 2.0 mi South 15.0 mph - N/A   Overcast
10:20 AM 48.2 °F - 48.2 °F 100% 29.83 in 0.8 mi South 13.8 mph 25.3 mph N/A   Mist
10:56 AM 50.0 °F - 48.9 °F 96% 29.85 in 1.0 mi South 11.5 mph - N/A   Overcast
11:56 AM 53.1 °F - 52.0 °F 96% 29.78 in 1.0 mi South 11.5 mph 20.7 mph N/A   Overcast
12:03 PM 53.6 °F - 51.8 °F 94% 29.73 in 4.0 mi South 11.5 mph 20.7 mph N/A   Overcast
12:18 PM 53.6 °F - 51.8 °F 94% 29.72 in 2.0 mi South 11.5 mph 20.7 mph N/A   Overcast
12:56 PM 55.0 °F - 52.0 °F 89% 29.74 in 2.0 mi South 12.7 mph 20.7 mph N/A   Overcast
1:03 PM 55.4 °F - 51.8 °F 88% 29.69 in 5.0 mi South 12.7 mph - N/A   Overcast
1:56 PM 55.9 °F - 53.1 °F 90% 29.69 in 6.0 mi South 8.1 mph 18.4 mph N/A   Overcast
2:26 PM 57.2 °F - 53.6 °F 88% 29.62 in 7.0 mi South 11.5 mph - N/A   Overcast
2:56 PM 60.1 °F - 54.0 °F 80% 29.67 in 10.0 mi SW 17.3 mph 26.5 mph N/A   Overcast
3:56 PM 59.0 °F - 54.0 °F 83% 29.64 in 10.0 mi SSW 17.3 mph 25.3 mph N/A   Overcast
4:56 PM 59.0 °F - 54.0 °F 83% 29.65 in 10.0 mi SW 15.0 mph 24.2 mph N/A   Overcast
5:56 PM 59.0 °F - 54.0 °F 83% 29.63 in 10.0 mi SSW 19.6 mph 28.8 mph 0.00 in   Overcast
6:56 PM 60.1 °F - 54.0 °F 80% 29.61 in 10.0 mi SSW 15.0 mph 25.3 mph N/A   Overcast
7:56 PM 60.1 °F - 55.0 °F 83% 29.59 in 10.0 mi SSW 17.3 mph 26.5 mph N/A   Overcast
8:56 PM 59.0 °F - 55.0 °F 87% 29.57 in 10.0 mi South 19.6 mph 29.9 mph 0.00 in Rain Light Rain
9:54 PM 59.0 °F - 55.4 °F 88% 29.50 in 10.0 mi South 24.2 mph 34.5 mph 0.01 in Rain Light Rain
9:56 PM 59.0 °F - 55.9 °F 90% 29.55 in 10.0 mi South 16.1 mph 34.5 mph 0.01 in Rain Light Rain
10:39 PM 57.2 °F - - N/A% 29.50 in 4.0 mi SSW 17.3 mph 27.6 mph 0.00 in Rain Light Rain
10:54 PM 57.2 °F - - N/A% 29.49 in 6.0 mi South 11.5 mph 23.0 mph N/A Rain Light Rain
10:56 PM 57.0 °F - - N/A% 29.53 in 6.0 mi SSW 17.3 mph 25.3 mph 0.00 in Rain Light Rain
11:56 PM 57.9 °F - - N/A% 29.48 in 9.0 mi SSW 12.7 mph 23.0 mph 0.00 in   Overcast